Wind_Speed
13 13 13 12 13 12 12 11 11 12 13 14 14 14 14 15 15 15 15 16 17 18 19 20 21 22 23 24 25 27 29 30 32 33 35 36 37 38 39 39 39 39 39 38
12 13 12 11 11 11 12 11 12 12 14 14 14 15 15 15 16 16 16 17 18 19 20 21 22 23 24 26 27 29 30 32 34 36 37 38 39 40 41 41 41 40 40 39
12 13 12 11 11 11 11 11 12 12 14 15 15 15 15 16 16 16 17 18 19 20 21 22 24 25 26 27 29 31 33 34 36 38 39 40 41 42 42 42 41 41 40 40
13 14 12 12 13 12 12 12 13 14 15 15 16 16 16 17 17 17 17 18 20 21 22 24 25 26 27 29 31 33 35 37 39 40 41 42 43 44 43 43 42 41 41 40
13 12 12 14 14 13 13 14 16 16 17 17 17 17 17 17 17 18 19 20 21 22 24 25 26 27 29 31 33 35 37 39 40 42 43 44 44 45 44 43 43 42 41 39
14 13 13 16 17 15 16 16 18 18 19 19 19 18 19 19 19 19 20 21 22 24 25 26 27 29 31 33 35 37 39 41 42 44 44 45 45 45 45 43 43 42 40 39
17 16 16 19 18 17 17 19 21 21 20 20 20 20 20 21 21 21 22 23 24 25 27 28 29 31 32 35 37 39 41 43 44 45 46 47 46 46 45 43 42 41 39 37
19 19 20 21 19 20 21 21 22 22 22 22 22 22 22 23 24 24 25 25 27 28 29 29 31 33 35 37 39 41 43 44 45 46 47 48 48 46 44 43 41 39 38 37
23 23 24 23 23 23 23 23 24 24 24 24 24 24 24 25 26 27 27 28 29 30 31 33 34 35 37 39 42 43 44 45 47 48 48 49 48 47 44 42 40 39 37 36
23 24 24 24 24 24 25 25 26 26 26 27 26 27 27 28 29 29 30 31 31 33 34 36 37 38 40 42 44 45 46 47 48 49 49 49 48 46 44 41 40 38 37 35
25 25 25 26 26 26 26 27 27 28 28 29 29 29 30 30 31 32 34 34 35 36 38 39 40 41 43 44 46 48 49 49 49 50 49 48 47 45 43 41 39 37 36 35
26 26 26 27 27 28 28 28 29 30 30 31 31 32 32 33 34 36 37 38 39 40 41 42 43 43 45 47 48 49 49 50 50 50 49 48 46 44 42 41 38 37 35 34
27 27 28 28 29 29 30 30 30 31 31 32 33 34 34 35 36 38 40 41 43 42 43 45 45 45 47 49 49 50 50 51 51 50 48 47 45 43 41 39 37 35 35 33
28 29 29 29 30 30 30 31 31 32 32 33 35 36 37 38 39 41 42 44 45 45 46 47 47 47 49 50 51 50 51 51 50 49 47 46 44 41 39 36 35 34 33 32
29 30 31 31 31 32 32 32 33 34 34 35 37 38 39 40 41 43 45 46 47 47 48 48 49 49 50 50 50 51 51 50 49 48 46 44 41 39 37 35 34 32 32 31
30 31 32 33 33 33 34 35 35 36 37 39 40 41 42 43 45 46 48 49 50 51 51 50 50 50 50 50 50 51 50 49 48 46 44 41 39 37 35 33 32 31 30 29
33 33 34 35 35 36 36 37 38 39 40 41 43 44 45 46 48 49 49 50 51 52 53 52 51 51 51 51 51 51 50 48 47 44 41 39 37 35 33 31 31 29 28 27
35 35 36 36 37 37 38 39 40 42 43 44 45 47 48 49 50 51 51 51 52 54 54 53 53 53 53 52 51 50 49 47 45 42 39 36 34 32 30 29 28 27 26 25
36 37 37 38 39 40 41 42 43 45 46 47 48 49 50 52 52 53 53 53 53 54 54 55 55 55 54 52 51 49 47 45 42 39 36 33 31 30 28 27 25 24 23 22
38 39 40 41 42 43 44 45 46 47 48 49 50 51 52 53 54 55 55 56 56 56 56 55 55 54 52 51 49 47 44 41 38 36 33 30 28 27 26 24 23 21 20 18
41 42 43 44 44 45 47 48 49 50 51 52 53 54 55 55 56 57 57 56 56 56 55 54 53 52 50 48 46 43 41 38 35 32 29 27 25 24 23 22 20 19 17 17
44 45 46 47 47 48 49 51 52 53 53 54 55 56 56 56 56 56 56 56 55 54 53 52 51 49 47 45 42 39 37 34 31 28 26 24 23 21 20 19 18 17 16 15
46 47 48 49 50 51 52 53 54 54 55 56 56 57 57 57 56 56 55 54 54 53 52 50 49 46 43 41 39 36 33 30 28 25 23 22 21 19 17 16 15 15 14 13
48 49 50 51 52 52 53 53 54 55 55 56 56 56 56 56 55 55 54 53 51 50 49 47 45 42 39 37 34 31 29 26 24 22 21 20 18 17 15 14 13 12 12 11
50 51 51 52 52 53 54 54 54 55 55 54 54 54 54 53 52 51 50 49 48 47 45 42 40 37 34 31 28 26 25 24 22 20 18 17 15 14 13 12 11 10 9 8
50 51 51 52 52 53 53 53 52 52 52 51 51 50 49 48 47 47 46 45 44 42 39 37 34 31 29 27 25 23 21 21 20 19 17 16 14 13 11 10 9 7 6 6
50 50 51 51 50 50 50 49 49 48 48 47 47 46 45 45 44 43 42 41 39 36 33 31 28 26 25 23 21 20 18 17 16 16 15 13 12 11 10 9 8 7 5 4
Wind_Direction
261 264 264 265 268 270 269 264 263 267 274 282 291 298 302 304 304 305 306 308 310 313 317 319 321 322 323 324 324 325 326 326 325 325 324 323 323 322 320 318 316 312 309 306
266 267 266 266 269 272 272 268 270 272 277 282 291 296 300 302 302 303 304 306 309 313 317 320 322 323 323 324 324 325 325 325 325 325 325 324 323 322 321 319 316 313 310 307
263 265 266 272 268 269 272 271 272 276 280 287 292 296 299 299 301 302 303 306 310 314 316 319 322 322 323 324 324 325 325 325 326 326 325 325 324 323 322 320 317 315 312 309
261 260 264 262 264 268 270 274 278 280 285 290 293 297 298 299 300 300 302 305 309 314 316 319 321 322 322 323 323 323 324 326 327 327 326 325 324 323 322 321 318 316 314 311
259 259 267 269 269 270 272 277 281 284 288 290 293 295 295 297 298 300 302 305 309 313 316 318 319 320 321 322 322 323 324 326 327 326 326 325 324 323 322 320 319 316 314 312
254 251 255 262 267 270 275 280 281 284 287 290 291 293 295 297 298 300 303 306 310 312 314 315 317 318 319 320 322 323 325 326 326 326 326 326 325 324 322 320 319 317 315 314
255 256 259 260 266 271 273 274 280 284 287 288 289 291 294 298 300 302 304 307 309 311 312 313 315 316 318 320 321 323 324 325 326 326 326 326 325 324 323 320 319 318 316 315
256 259 258 263 268 271 272 276 282 286 288 289 291 293 296 299 301 304 306 307 308 310 311 312 313 315 317 319 321 322 323 325 325 326 326 326 326 325 323 321 320 319 318 316
254 256 261 265 268 272 276 279 283 287 289 289 291 294 297 299 301 304 306 307 309 310 311 311 312 313 316 318 320 322 323 324 325 325 326 326 325 325 323 321 320 320 319 318
259 261 265 268 270 274 277 281 284 286 288 290 291 294 297 300 301 303 305 306 307 309 309 310 311 312 314 317 319 321 321 322 323 324 325 325 325 324 323 322 322 321 320 319
263 265 267 269 272 276 279 282 284 286 288 290 291 293 296 299 300 302 304 305 305 307 308 308 310 312 313 315 318 319 320 321 322 323 324 325 324 323 322 322 322 322 322 321
266 268 269 271 274 277 279 281 283 285 287 288 290 292 294 297 298 300 302 303 303 304 306 306 308 310 312 314 316 318 319 320 321 322 323 323 323 323 322 322 322 323 322 323
268 270 271 273 274 276 279 280 282 284 285 287 289 291 293 294 295 297 298 300 300 301 303 303 305 308 310 312 314 316 317 318 320 321 321 322 322 322 322 322 322 323 323 324
270 272 274 275 277 279 280 281 282 283 285 286 287 289 290 292 293 294 295 297 297 298 300 301 303 306 308 310 312 314 315 317 318 318 319 319 320 321 321 321 321 322 323 324
272 274 276 277 279 281 282 283 284 285 285 286 286 287 289 290 291 292 294 295 296 297 299 300 302 304 307 309 310 312 314 315 315 316 316 317 318 319 320 320 321 321 322 324
273 274 276 278 280 281 282 283 284 284 285 285 286 287 289 289 290 293 293 294 296 297 298 299 301 303 305 307 308 310 311 312 312 313 314 315 316 317 318 318 319 320 321 323
274 276 278 279 280 281 282 282 283 283 284 284 285 287 288 288 290 291 293 294 296 297 297 298 299 302 304 306 307 308 309 309 310 310 311 312 312 314 315 316 318 319 320 322
275 277 278 279 280 281 281 282 282 282 283 284 285 286 287 288 289 290 292 293 294 295 295 296 299 301 303 304 304 305 306 306 307 307 307 308 309 311 313 315 317 318 319 321
276 277 278 279 280 280 280 281 281 282 283 284 285 286 287 288 290 291 292 294 295 295 296 297 299 300 301 301 301 302 303 303 303 303 303 304 305 308 310 312 314 317 318 320
277 278 279 280 280 281 282 283 283 284 284 285 286 287 289 290 291 292 294 295 296 296 297 297 298 298 298 299 299 299 299 298 298 299 299 299 301 303 306 308 310 313 315 318
279 280 281 282 282 283 284 285 286 287 287 288 289 290 290 291 293 294 294 295 296 297 297 297 297 297 296 296 296 296 295 294 294 294 294 294 296 300 302 304 306 308 311 314
281 282 283 284 284 285 286 287 288 289 290 290 291 292 292 293 294 295 295 296 297 296 296 296 295 295 294 293 293 292 290 289 289 288 287 288 291 295 296 299 301 303 307 310
283 284 285 286 287 288 288 289 290 291 291 292 292 293 294 294 295 295 295 296 296 295 295 295 294 293 292 290 289 287 285 284 283 281 280 281 285 287 289 293 296 299 303 307
285 286 287 288 289 289 290 291 292 292 293 293 294 294 294 295 295 295 295 295 295 295 294 293 291 289 288 287 284 280 278 277 274 272 272 274 276 278 282 287 290 293 300 307
287 288 289 290 290 291 292 293 293 293 294 294 295 295 296 296 296 295 295 294 294 294 293 291 288 286 284 281 277 274 270 266 263 264 267 267 267 270 274 278 282 286 295 306
288 289 290 291 292 292 293 294 294 295 295 296 296 297 296 296 296 296 295 295 294 293 292 289 286 283 280 276 272 268 263 260 256 257 259 257 256 260 263 265 270 274 282 295
289 290 291 291 293 293 294 295 296 296 297 297 297 297 297 297 297 296 295 295 294 291 289 286 282 278 274 271 266 262 258 252 246 244 243 243 244 247 248 251 255 258 261 273
Height
5854 5853 5853 5853 5853 5852 5852 5852 5853 5853 5851 5849 5848 5846 5845 5843 5841 5839 5837 5835 5833 5830 5827 5823 5820 5816 5812 5808 5803 5799 5794 5789 5784 5778 5772 5766 5760 5754 5748 5741 5735 5729 5723 5718
5850 5850 5849 5849 5849 5849 5848 5848 5848 5848 5847 5845 5844 5843 5841 5839 5837 5835 5833 5831 5828 5825 5822 5818 5815 5811 5807 5802 5798 5793 5788 5783 5777 5771 5765 5759 5752 5745 5739 5732 5725 5719 5713 5707
5847 5847 5846 5847 5846 5845 5845 5845 5844 5844 5844 5841 5840 5838 5837 5835 5833 5831 5829 5826 5823 5820 5817 5813 5809 5805 5801 5796 5792 5787 5781 5776 5770 5763 5757 5750 5743 5736 5729 5722 5715 5709 5702 5696
5843 5844 5844 5846 5842 5842 5842 5841 5840 5840 5839 5837 5836 5834 5832 5830 5828 5826 5824 5821 5818 5815 5811 5808 5803 5799 5795 5790 5785 5780 5775 5769 5762 5756 5749 5742 5734 5727 5720 5712 5705 5698 5691 5685
5839 5840 5840 5840 5838 5838 5838 5837 5836 5835 5834 5832 5831 5829 5827 5825 5823 5821 5818 5816 5812 5809 5805 5801 5797 5793 5788 5784 5779 5773 5767 5761 5754 5747 5740 5733 5725 5718 5710 5703 5695 5688 5681 5675
5834 5835 5837 5837 5834 5833 5835 5833 5832 5830 5829 5827 5826 5825 5823 5820 5818 5815 5812 5809 5806 5803 5799 5795 5791 5786 5782 5777 5772 5766 5760 5753 5746 5739 5732 5724 5716 5708 5700 5693 5685 5678 5671 5664
5830 5830 5832 5830 5829 5830 5831 5830 5827 5825 5824 5822 5820 5819 5817 5814 5811 5809 5806 5803 5800 5796 5793 5789 5784 5780 5775 5770 5764 5758 5751 5745 5738 5730 5723 5715 5707 5699 5691 5683 5676 5668 5661 5655
5824 5826 5828 5824 5824 5825 5824 5822 5820 5819 5818 5816 5814 5812 5810 5807 5805 5802 5799 5796 5793 5789 5785 5781 5777 5772 5767 5762 5756 5750 5743 5736 5729 5721 5713 5705 5697 5689 5681 5674 5666 5659 5652 5646
5819 5820 5818 5818 5818 5817 5817 5815 5814 5812 5811 5809 5807 5805 5803 5801 5798 5795 5792 5789 5785 5782 5778 5774 5769 5764 5759 5753 5747 5740 5734 5727 5719 5712 5704 5696 5687 5680 5672 5664 5657 5650 5643 5637
5811 5811 5811 5811 5810 5810 5809 5808 5807 5805 5803 5802 5800 5798 5795 5793 5790 5787 5784 5781 5777 5773 5769 5765 5760 5755 5750 5744 5738 5731 5724 5717 5710 5702 5694 5686 5678 5670 5663 5655 5648 5641 5635 5628
5804 5804 5804 5803 5803 5802 5802 5800 5799 5797 5796 5794 5792 5790 5787 5785 5782 5779 5775 5772 5768 5765 5760 5756 5751 5746 5740 5734 5728 5722 5715 5708 5700 5692 5684 5677 5669 5661 5654 5647 5640 5633 5627 5620
5796 5796 5796 5796 5795 5794 5793 5792 5791 5789 5788 5786 5784 5781 5779 5776 5773 5770 5766 5763 5759 5755 5751 5746 5741 5736 5730 5725 5718 5712 5705 5698 5690 5682 5675 5667 5660 5653 5645 5639 5632 5625 5619 5613
5788 5787 5787 5787 5787 5786 5785 5783 5782 5780 5779 5777 5774 5772 5770 5767 5764 5760 5757 5753 5749 5745 5741 5736 5731 5726 5720 5714 5708 5702 5695 5687 5680 5672 5665 5658 5651 5644 5638 5631 5624 5618 5612 5605
5779 5779 5778 5778 5777 5776 5775 5774 5772 5771 5769 5767 5764 5762 5760 5757 5754 5750 5747 5743 5739 5734 5730 5725 5720 5715 5709 5704 5697 5691 5684 5677 5670 5663 5656 5649 5642 5636 5629 5623 5617 5611 5605 5599
5770 5770 5769 5768 5767 5766 5765 5764 5762 5760 5758 5756 5754 5751 5749 5746 5742 5739 5735 5731 5727 5723 5718 5713 5708 5703 5697 5692 5686 5680 5673 5666 5660 5653 5646 5640 5634 5628 5622 5616 5610 5604 5599 5593
5761 5760 5759 5758 5757 5756 5755 5753 5751 5749 5747 5744 5742 5740 5737 5734 5730 5727 5723 5719 5715 5710 5705 5701 5696 5691 5685 5680 5674 5668 5662 5656 5649 5643 5637 5631 5626 5620 5615 5609 5604 5598 5593 5587
5751 5750 5749 5748 5747 5745 5743 5742 5740 5737 5735 5732 5730 5727 5724 5721 5718 5714 5710 5706 5702 5697 5692 5688 5683 5678 5672 5667 5662 5656 5650 5644 5639 5633 5628 5623 5618 5613 5608 5603 5598 5592 5588 5582
5741 5740 5738 5737 5735 5734 5732 5730 5727 5725 5723 5720 5717 5714 5711 5708 5704 5701 5697 5693 5688 5684 5678 5673 5668 5663 5658 5653 5648 5643 5638 5633 5628 5623 5618 5614 5610 5605 5601 5596 5592 5587 5582 5578
5730 5729 5727 5726 5724 5722 5719 5717 5715 5712 5709 5707 5704 5700 5697 5693 5690 5686 5682 5678 5673 5669 5664 5659 5654 5649 5644 5639 5634 5630 5625 5621 5617 5613 5609 5605 5601 5598 5594 5590 5586 5582 5577 5573
5718 5717 5715 5713 5711 5709 5706 5704 5701 5698 5695 5692 5689 5686 5682 5678 5674 5670 5666 5661 5656 5652 5648 5643 5638 5634 5629 5624 5620 5616 5613 5609 5606 5602 5599 5597 5594 5590 5587 5584 5581 5577 5573 5570
5706 5704 5702 5700 5697 5695 5692 5689 5686 5683 5680 5677 5673 5670 5666 5662 5658 5653 5649 5645 5640 5635 5631 5626 5622 5618 5613 5609 5606 5603 5600 5597 5595 5592 5590 5588 5586 5583 5581 5578 5575 5572 5569 5566
5693 5690 5688 5686 5683 5680 5677 5674 5671 5667 5664 5660 5656 5652 5649 5645 5641 5636 5631 5627 5623 5618 5614 5610 5606 5602 5598 5595 5592 5590 5588 5586 5584 5583 5581 5580 5578 5576 5574 5572 5570 5567 5565 5562
5678 5676 5673 5670 5668 5665 5662 5658 5654 5651 5647 5643 5639 5635 5631 5627 5623 5619 5615 5610 5606 5601 5597 5594 5590 5586 5583 5580 5579 5577 5576 5575 5574 5573 5572 5572 5571 5570 5568 5567 5565 5563 5561 5558
5663 5660 5658 5655 5652 5648 5645 5641 5637 5633 5629 5625 5621 5617 5613 5609 5605 5601 5596 5593 5589 5585 5581 5577 5574 5571 5569 5567 5566 5565 5565 5564 5564 5564 5564 5564 5564 5563 5563 5561 5560 5558 5557 5555
5647 5644 5641 5638 5635 5631 5628 5624 5620 5616 5612 5608 5604 5599 5595 5591 5587 5584 5580 5576 5572 5568 5565 5562 5559 5557 5556 5555 5554 5554 5554 5554 5555 5556 5557 5557 5557 5557 5557 5556 5556 5555 5554 5552
5631 5628 5625 5621 5618 5615 5611 5607 5603 5599 5595 5591 5587 5583 5579 5575 5571 5567 5563 5560 5556 5553 5550 5548 5546 5544 5544 5544 5544 5544 5545 5545 5547 5548 5550 5551 5551 5552 5552 5552 5552 5552 5551 5550
5616 5612 5609 5605 5602 5598 5595 5591 5587 5583 5579 5575 5572 5568 5563 5560 5556 5552 5548 5545 5542 5539 5537 5535 5534 5534 5533 5534 5534 5535 5536 5538 5539 5541 5543 5545 5546 5547 5548 5548 5548 5549 5549 5548